N0LTM Weather Reports


time (UTC)temp
C
wind
direction
speed
KPH
gust
KPH
rain 1hr
cm
rain 24hr
cm
rain mn
cm
humidity
%
barometer
mb
20260504130552 14 207 4.8 14.5 0.00 0.00 0.00 55 1003.6
20260504110552 8 0 0.0 0.0 0.00 0.00 0.00 68 1003.6
20260504100555 7 0 0.0 0.0 0.00 0.00 0.00 74 1003.9
20260504081554 8 0 0.0 0.0 0.00 0.00 0.00 71 1004.2
20260504081058 8 0 0.0 0.0 0.00 0.00 0.00 71 1004.0
20260504080552 8 0 0.0 0.0 0.00 0.00 0.00 71 1004.0
20260504050554 12 0 0.0 9.7 0.00 0.00 0.00 64 1005.8
20260504045554 12 0 0.0 11.3 0.00 0.00 0.00 64 1005.8
20260504045054 12 217 1.6 8.0 0.00 0.00 0.00 64 1005.8
20260504044555 12 211 0.0 11.3 0.00 0.00 0.00 63 1005.7
20260504044053 12 0 3.2 11.3 0.00 0.00 0.00 63 1005.8
20260504043555 12 215 3.2 11.3 0.00 0.00 0.00 63 1005.8
20260504043100 12 0 1.6 11.3 0.00 0.00 0.00 63 1005.8
20260504042559 13 0 0.0 9.7 0.00 0.00 0.00 62 1005.8
20260504042051 13 0 0.0 9.7 0.00 0.00 0.00 61 1005.8
20260504041554 13 0 0.0 14.5 0.00 0.00 0.00 61 1005.8
20260504041054 13 208 3.2 14.5 0.00 0.00 0.00 60 1005.8
20260504040551 13 215 4.8 16.1 0.00 0.00 0.00 60 1005.8
20260504040056 13 221 6.4 16.1 0.00 0.00 0.00 59 1005.8
20260504035555 13 219 9.7 16.1 0.00 0.00 0.00 59 1005.8
20260504035055 13 232 6.4 14.5 0.00 0.00 0.00 59 1005.8
20260504034558 14 222 0.0 12.9 0.00 0.00 0.00 59 1005.8
20260504034055 14 204 6.4 14.5 0.00 0.00 0.00 58 1005.8
20260504033553 14 210 8.0 17.7 0.00 0.00 0.00 58 1005.8
20260504033059 14 198 9.7 17.7 0.00 0.00 0.00 58 1005.9
20260504032556 14 213 8.0 14.5 0.00 0.00 0.00 59 1005.8
20260504032055 14 220 8.0 16.1 0.00 0.00 0.00 58 1005.9
20260504031602 14 204 8.0 16.1 0.00 0.00 0.00 58 1005.9
20260504031051 14 204 8.0 14.5 0.00 0.00 0.00 58 1006.0
20260504030554 14 195 6.4 12.9 0.00 0.00 0.00 58 1006.0
20260504030056 14 210 4.8 14.5 0.00 0.00 0.00 58 1006.0
20260504025552 14 209 8.0 14.5 0.00 0.00 0.00 57 1006.0
20260504025055 15 209 6.4 12.9 0.00 0.00 0.00 56 1006.1
20260504024554 15 189 8.0 12.9 0.00 0.00 0.00 56 1006.1
20260504024055 15 207 8.0 14.5 0.00 0.00 0.00 56 1006.1
20260504023551 15 196 6.4 14.5 0.00 0.00 0.00 56 1006.1
20260504023053 15 202 4.8 11.3 0.00 0.00 0.00 55 1006.1
20260504022555 15 211 4.8 11.3 0.00 0.00 0.00 54 1006.0
20260504022056 15 205 6.4 11.3 0.00 0.00 0.00 54 1006.1
20260504021557 15 207 6.4 11.3 0.00 0.00 0.00 54 1006.0
20260504021056 15 196 6.4 11.3 0.00 0.00 0.00 53 1005.9
20260504020556 15 207 6.4 11.3 0.00 0.00 0.00 53 1005.9
20260504020131 15 200 6.4 12.9 0.00 0.00 0.00 52 1005.9
20260504015552 15 198 8.0 12.9 0.00 0.00 0.00 52 1005.8
20260504015052 15 223 6.4 12.9 0.00 0.00 0.00 51 1005.8
20260504014603 16 211 4.8 8.0 0.00 0.00 0.00 50 1005.8
20260504014054 16 198 3.2 9.7 0.00 0.00 0.00 49 1005.8
20260504013552 16 211 4.8 11.3 0.00 0.00 0.00 48 1005.8
20260504013115 16 209 4.8 11.3 0.00 0.00 0.00 48 1005.7
20260504012555 16 208 4.8 11.3 0.00 0.00 0.00 47 1005.6
20260504012055 16 223 4.8 9.7 0.00 0.00 0.00 47 1005.6
20260504011555 17 217 3.2 9.7 0.00 0.00 0.00 46 1005.5
20260504011055 17 221 4.8 9.7 0.00 0.00 0.00 45 1005.5
20260504010555 17 205 4.8 9.7 0.00 0.00 0.00 45 1005.5
20260504010055 17 209 3.2 9.7 0.00 0.00 0.00 44 1005.4
20260504005556 17 216 3.2 14.5 0.00 0.00 0.00 43 1005.3
20260504005109 17 217 4.8 14.5 0.00 0.00 0.00 43 1005.3
20260504004630 18 207 6.4 14.5 0.00 0.00 0.00 42 1005.3
20260504004053 18 202 6.4 14.5 0.00 0.00 0.00 42 1005.3
20260504003553 18 225 6.4 14.5 0.00 0.00 0.00 42 1005.4
20260504003059 18 217 6.4 17.7 0.00 0.00 0.00 42 1005.4
20260504002555 18 219 6.4 17.7 0.00 0.00 0.00 41 1005.4
20260504002055 18 224 4.8 12.9 0.00 0.00 0.00 42 1005.5
20260504001620 18 202 4.8 12.9 0.00 0.00 0.00 41 1005.4
20260504001058 18 226 4.8 17.7 0.00 0.00 0.00 41 1005.5
20260504000555 18 0 4.8 17.7 0.00 0.00 0.00 41 1005.5
20260503235556 19 227 3.2 22.5 0.00 0.00 0.00 41 1005.6
20260503235051 19 232 3.2 22.5 0.00 0.00 0.00 40 1005.5
20260503234604 19 219 3.2 27.4 0.00 0.00 0.00 40 1005.5
20260503234052 19 234 3.2 27.4 0.00 0.00 0.00 40 1005.6
20260503233553 19 222 3.2 27.4 0.00 0.00 0.00 39 1005.5
20260503233101 19 295 6.4 27.4 0.00 0.00 0.00 39 1005.5
20260503232553 19 319 6.4 22.5 0.00 0.00 0.00 38 1005.6
20260503232053 20 288 4.8 22.5 0.00 0.00 0.00 38 1005.6
20260503231553 20 230 6.4 19.3 0.00 0.00 0.00 37 1005.6
20260503231053 20 338 4.8 19.3 0.00 0.00 0.00 38 1005.7
20260503230555 20 224 3.2 22.5 0.00 0.00 0.00 38 1005.7
20260503230110 20 232 3.2 22.5 0.00 0.00 0.00 39 1005.7
20260503225552 20 227 4.8 20.9 0.00 0.00 0.00 37 1005.8
20260503225053 20 261 6.4 20.9 0.00 0.00 0.00 37 1005.8
20260503224604 20 243 4.8 17.7 0.00 0.00 0.00 38 1005.9
20260503224053 20 236 4.8 14.5 0.00 0.00 0.00 37 1005.9
20260503223556 20 5 3.2 20.9 0.00 0.00 0.00 38 1005.9
20260503223053 20 283 6.4 20.9 0.00 0.00 0.00 38 1005.8
20260503222556 20 225 3.2 22.5 0.00 0.00 0.00 38 1005.9
20260503222052 20 233 3.2 29.0 0.00 0.00 0.00 37 1005.9
20260503221604 20 265 4.8 29.0 0.00 0.00 0.00 36 1005.8
20260503221052 20 237 9.7 30.6 0.00 0.00 0.00 35 1005.9
20260503220552 20 232 11.3 30.6 0.00 0.00 0.00 36 1005.7
20260503220059 20 229 9.7 27.4 0.00 0.00 0.00 37 1005.8
20260503215552 20 229 8.0 25.7 0.00 0.00 0.00 37 1005.9
20260503215053 20 335 6.4 30.6 0.00 0.00 0.00 37 1006.0
20260503214558 20 228 12.9 30.6 0.00 0.00 0.00 38 1006.0
20260503214053 20 232 20.9 35.4 0.00 0.00 0.00 36 1005.9
20260503213555 20 225 19.3 35.4 0.00 0.00 0.00 35 1006.0
20260503213059 20 186 16.1 35.4 0.00 0.00 0.00 37 1006.0
20260503212553 19 213 25.7 35.4 0.00 0.00 0.00 36 1006.1
20260503212053 20 211 17.7 33.8 0.00 0.00 0.00 35 1006.1
20260503211556 20 208 22.5 41.8 0.00 0.00 0.00 36 1006.2
20260503211054 19 233 24.1 41.8 0.00 0.00 0.00 36 1006.3
20260503210552 19 219 20.9 38.6 0.00 0.00 0.00 36 1006.4
20260503210056 19 225 25.7 41.8 0.00 0.00 0.00 35 1006.6
20260503205552 19 230 22.5 41.8 0.00 0.00 0.00 36 1006.6
20260503205053 18 229 27.4 41.8 0.00 0.00 0.00 37 1006.7
20260503204559 18 224 24.1 37.0 0.00 0.00 0.00 36 1006.9
20260503204053 19 235 17.7 37.0 0.00 0.00 0.00 37 1007.2
20260503203552 18 223 16.1 37.0 0.00 0.00 0.00 38 1007.2
20260503203112 18 227 19.3 40.2 0.00 0.00 0.00 36 1007.4
20260503202552 18 219 17.7 46.7 0.00 0.00 0.00 37 1007.6
20260503202053 18 224 27.4 46.7 0.00 0.00 0.00 35 1007.5
20260503201554 18 198 27.4 43.5 0.00 0.00 0.00 36 1007.6
20260503201052 18 219 20.9 43.5 0.00 0.00 0.00 37 1007.8
20260503200553 18 220 25.7 43.5 0.00 0.00 0.00 35 1007.9
20260503200053 18 270 19.3 41.8 0.00 0.00 0.00 36 1007.9
20260503195552 18 226 20.9 40.2 0.00 0.00 0.00 37 1008.0
20260503195052 18 237 12.9 37.0 0.00 0.00 0.00 39 1008.2
20260503194557 17 240 20.9 37.0 0.00 0.00 0.00 38 1008.0
20260503194053 17 246 22.5 40.2 0.00 0.00 0.00 42 1008.1
20260503193553 17 211 19.3 40.2 0.00 0.00 0.00 42 1008.1
20260503193055 17 213 24.1 48.3 0.00 0.00 0.00 46 1008.3
20260503192552 17 207 25.7 49.9 0.00 0.00 0.00 46 1008.6
20260503192052 16 196 27.4 49.9 0.00 0.00 0.00 44 1008.6
20260503191556 16 227 24.1 41.8 0.00 0.00 0.00 46 1008.7
20260503191052 16 188 27.4 45.1 0.00 0.00 0.00 48 1008.8
20260503190552 16 176 29.0 45.1 0.00 0.00 0.00 47 1008.8
20260503190108 16 191 27.4 38.6 0.00 0.00 0.00 48 1008.8
20260503185553 16 227 20.9 40.2 0.00 0.00 0.00 48 1008.7
20260503185052 15 242 25.7 48.3 0.00 0.00 0.00 47 1008.6
20260503184553 15 202 27.4 48.3 0.00 0.00 0.00 48 1008.5
20260503184053 15 178 27.4 43.5 0.00 0.00 0.00 47 1008.6
20260503183553 15 205 30.6 43.5 0.00 0.00 0.00 47 1008.8
20260503183053 15 169 29.0 46.7 0.00 0.00 0.00 47 1008.9
20260503182552 15 216 24.1 46.7 0.00 0.00 0.00 46 1009.0
20260503182052 15 175 27.4 46.7 0.00 0.00 0.00 44 1009.0
20260503181559 15 202 29.0 46.7 0.00 0.00 0.00 46 1009.1
20260503181053 15 179 24.1 43.5 0.00 0.00 0.00 48 1009.4
20260503180554 15 218 25.7 45.1 0.00 0.00 0.00 48 1009.6
20260503180057 15 191 27.4 45.1 0.00 0.00 0.00 47 1009.6
20260503175553 15 209 25.7 41.8 0.00 0.00 0.00 48 1009.8
20260503175052 15 157 25.7 41.8 0.00 0.00 0.00 48 1009.9
20260503174600 15 199 22.5 40.2 0.00 0.00 0.00 50 1009.8
20260503174052 14 188 24.1 40.2 0.00 0.00 0.00 48 1009.8
20260503173552 14 166 24.1 38.6 0.00 0.00 0.00 52 1009.9
20260503173054 13 207 24.1 37.0 0.00 0.00 0.00 54 1010.0
20260503172553 13 167 24.1 41.8 0.00 0.00 0.00 56 1010.2
20260503172053 13 194 19.3 41.8 0.00 0.00 0.00 56 1010.3
20260503171553 13 161 17.7 45.1 0.00 0.00 0.00 56 1010.5
20260503171057 13 175 25.7 45.1 0.00 0.00 0.00 57 1010.7
20260503170553 13 180 20.9 43.5 0.00 0.00 0.00 60 1010.8
20260503150555 11 223 19.3 41.8 0.00 0.00 0.00 60 1013.5